This is the latest recevied weather packets stored in our database for station/object W3TMB. If no packets are shown the sender has not sent any weather packets the latest 1 day(s).
| Time | Temp. | Humidity | Pressure | Rain* | Wind** | Luminosity | Snow |
|---|---|---|---|---|---|---|---|
| 1777983365 | 12.22° C | 98% | 1006.6 hPa | 0 mm | 0 m/s | 208 W/m² | - |
| 1777983062 | 11.67° C | 98% | 1006.5 hPa | 0 mm | 0 m/s | 95 W/m² | - |
| 1777982758 | 11.67° C | 98% | 1006.5 hPa | 0 mm | 0 m/s | 63 W/m² | - |
| 1777982454 | 11.67° C | 98% | 1006.4 hPa | 0 mm | 0 m/s | 50 W/m² | - |
| 1777982148 | 11.67° C | 98% | 1006.2 hPa | 0 mm | 0 m/s | 31 W/m² | - |
| 1777981846 | 11.67° C | 98% | 1006.7 hPa | 0 mm | 0 m/s | 30 W/m² | - |
| 1777981543 | 11.11° C | 98% | 1006.3 hPa | 0 mm | 0 m/s | 29 W/m² | - |
| 1777981239 | 11.11° C | 98% | 1006.4 hPa | 0 mm | 0.45 m/s, 358° | 39 W/m² | - |
| 1777980936 | 11.11° C | 98% | 1006.4 hPa | 0 mm | 0 m/s | 44 W/m² | - |
| 1777980632 | 11.11° C | 99% | 1006.4 hPa | 0 mm | 0 m/s | 69 W/m² | - |
| 1777980328 | 10.56° C | 99% | 1006.2 hPa | 0 mm | 0 m/s | 100 W/m² | - |
| 1777980027 | 10.56° C | 99% | 1006.4 hPa | 0 mm | 0 m/s | 70 W/m² | - |
| 1777979720 | 10.56° C | 99% | 1006.3 hPa | 0 mm | 0.45 m/s, 6° | 41 W/m² | - |
| 1777979417 | 10.56° C | 99% | 1006.1 hPa | 0 mm | 0 m/s | 36 W/m² | - |
| 1777979114 | 10.56° C | 99% | 1006 hPa | 0 mm | 0 m/s | 26 W/m² | - |
| 1777978810 | 10.56° C | 99% | 1006 hPa | 0 mm | 0 m/s | 21 W/m² | - |
| 1777978507 | 10.56° C | 99% | 1005.9 hPa | 0 mm | 0 m/s | 12 W/m² | - |
| 1777978203 | 10.56° C | 99% | 1005.9 hPa | 0 mm | 0 m/s | 10 W/m² | - |
| 1777977900 | 10.56° C | 99% | 1005.7 hPa | 0 mm | 0 m/s | 12 W/m² | - |
| 1777977597 | 10.56° C | 99% | 1005.9 hPa | 0 mm | 0 m/s | 16 W/m² | - |
| 1777977294 | 10.56° C | 99% | 1005.8 hPa | 0 mm | 0 m/s | 10 W/m² | - |
| 1777976991 | 10.56° C | 99% | 1006 hPa | 0 mm | 0 m/s | 7 W/m² | - |
| 1777976688 | 10.56° C | 99% | 1005.9 hPa | 0 mm | 0 m/s | 8 W/m² | - |
| 1777976385 | 10.56° C | 99% | 1005.6 hPa | 0 mm | 0 m/s | 6 W/m² | - |
| 1777976078 | 10.56° C | 99% | 1005.8 hPa | 0 mm | 0 m/s | 4 W/m² | - |
* Rain latest hour (hover to see other rain measurements)
** Current wind speed in m/s (hover to see current wind gust speed)